Weather History for LHDC - September, 2012

Change the Weather History Date:

Thursday, September 13, 2012

  Actual Average Record
Temperature  
Mean Temperature 68 °F -  
Max Temperature 81 °F 68 °F - ()
Min Temperature 54 °F 47 °F - ()
Cooling Degree Days 2    
Growing Degree Days 18 (Base 50)    
Moisture  
Dew Point 47 °F    
Average Humidity 40    
Maximum Humidity 77    
Minimum Humidity 19    
Precipitation  
Precipitation 0.00 in 0.05 in - ()
Sea Level Pressure  
Sea Level Pressure 29.69 in    
Wind  
Wind Speed 5 mph ()    
Max Wind Speed 10 mph    
Max Gust Speed -    
Visibility 18.0 miles    
Events      
T = Trace of Precipitation, MM = Missing Value Source: Averaged Metar Reports

Daily Weather History Graph

Daily Weather History Graph

Search for Another Location

Airport or City:

Trip Planner

Search our weather history database for the weather conditions in past years. The results will help you decide how hot, cold, wet, or windy it might be!

Date:

Astronomy

Sep. 13, 2012 Rise Set
Actual Time 6:08 AM CEST 6:49 PM CEST
Civil Twilight 5:37 AM CEST 7:20 PM CEST
Nautical Twilight 5:00 AM CEST 7:57 PM CEST
Astronomical Twilight 4:21 AM CEST 8:35 PM CEST
Moon 2:58 AM CEST (9/13) 5:08 PM CEST (9/13)
Length of Visible Light 13h 42m
Length of Day
12h 40m
Waning Crescent, 9% of the Moon is Illuminated
Sep 13
Waning Crescent
Sep 16
New
Sep 22
First Quarter
Sep 30
Full
Oct 8
Last Quarter

Hourly Weather History & Observations

Time (CEST) Temp. Dew Point Humidity Pressure Visibility Wind Dir Wind Speed Gust Speed Precip Events Conditions
2:00 AM 60 °F 47 °F 51% 29.72 in - Calm Calm - -  
4:45 AM 57.2 °F 46.4 °F 67% 29.68 in - ENE 2.3 mph - N/A   Clear
6:15 AM 55.4 °F 46.4 °F 72% 29.68 in - ENE 4.6 mph - N/A   Clear
6:45 AM 53.6 °F 46.4 °F 77% 29.68 in - ENE 4.6 mph - N/A   Clear
7:00 AM - - N/A% - - ESE 6.9 mph - N/A   Clear
7:15 AM 55.4 °F 46.4 °F 72% 29.68 in - ENE 5.8 mph - N/A   Clear
7:45 AM 59.0 °F 46.4 °F 63% 29.68 in - ENE 6.9 mph - N/A   Clear
8:00 AM 59 °F 47 °F 55% 29.68 in 19 mi ENE 6.7 mph - -   Partly Cloudy
8:15 AM 64.4 °F 46.4 °F 52% 29.68 in - East 6.9 mph - N/A   Clear
8:45 AM 68.0 °F 48.2 °F 49% 29.68 in - ESE 6.9 mph - N/A   Clear
9:15 AM 71.6 °F 44.6 °F 38% 29.71 in - ESE 6.9 mph - N/A   Clear
9:45 AM 75.2 °F 44.6 °F 34% 29.71 in - SE 6.9 mph - N/A   Clear
10:00 AM - - N/A% - - SE 8.1 mph - N/A   Clear
10:15 AM 77.0 °F 42.8 °F 29% 29.71 in - South 6.9 mph - N/A   Clear
10:45 AM 78.8 °F 44.6 °F 30% 29.68 in - South 8.1 mph - N/A   Clear
11:15 AM 78.8 °F 44.6 °F 30% 29.68 in - South 4.6 mph - N/A   Clear
11:45 AM 78.8 °F 44.6 °F 30% 29.68 in - SSW 10.4 mph - N/A   Clear
12:15 PM 80.6 °F 46.4 °F 30% 29.68 in - South 9.2 mph - N/A   Clear
12:45 PM 80.6 °F 44.6 °F 28% 29.68 in - South 6.9 mph - N/A   Clear
1:00 PM - - N/A% - - South 8.1 mph - N/A   Clear
1:15 PM 80.6 °F 46.4 °F 30% 29.68 in - South 5.8 mph - N/A   Clear
1:45 PM 80.6 °F 46.4 °F 30% 29.68 in - South 6.9 mph - N/A   Clear
2:00 PM 81 °F 46 °F 19% 29.67 in 19 mi South 6.7 mph - -   Partly Cloudy
2:15 PM 80.6 °F 46.4 °F 30% 29.68 in - SSW 6.9 mph - N/A   Clear
2:45 PM 80.6 °F 46.4 °F 30% 29.68 in - SSE 8.1 mph - N/A   Clear
3:15 PM 80.6 °F 44.6 °F 28% 29.68 in - SSW 6.9 mph - N/A   Clear
3:45 PM 80.6 °F 46.4 °F 30% 29.68 in - SSW 5.8 mph - N/A   Clear
4:00 PM - - N/A% - - South 6.9 mph - N/A   Clear
4:15 PM 80.6 °F 46.4 °F 30% 29.68 in - SSW 4.6 mph - N/A   Clear
4:45 PM 80.6 °F 48.2 °F 32% 29.68 in - South 5.8 mph - N/A   Clear
5:15 PM 80.6 °F 46.4 °F 30% 29.68 in - SSE 2.3 mph - N/A   Clear
5:45 PM 80.6 °F 48.2 °F 32% 29.68 in - SW 1.2 mph - N/A   Clear
6:15 PM 78.8 °F 46.4 °F 32% 29.68 in - South 1.2 mph - N/A   Clear
6:45 PM 77.0 °F 48.2 °F 36% 29.68 in - ENE 1.2 mph - N/A   Clear
7:15 PM 73.4 °F 51.8 °F 47% 29.71 in - NNE 3.5 mph - N/A   Clear
7:45 PM 73.4 °F 50.0 °F 44% 29.71 in - NE 3.5 mph - N/A   Clear
8:00 PM 73 °F 49 °F 32% 29.70 in 16 mi NE 4.5 mph - -   Partly Cloudy
10:00 PM - - N/A% - - North - - N/A   Unknown